C/2023 B2 ( ATLAS )

Japanese version
Home page
Updated on March 26, 2023

---------------------------------------------------------------------

* Profile

Discovery Date January 21, 2023
Magnitude 18.8 mag
Discoverer Asteroid Terrestrial-Impact Last Alert System (ATLAS) search program

* Pictures

* Orbital Elements

Epoch 2023 Feb. 25.0 TT = JDT 2460000.5
T 2023 Mar. 10.49841 TT                                 Rudenko
q   1.7431149            (2000.0)            P               Q
z  +0.0016888      Peri.  317.40128     -0.89555089     -0.18835589
 +/-0.0000032      Node   218.12029     +0.12890453     -0.97695788
e   0.9970563      Incl.   40.77059     -0.42587818     +0.10037609
>From 109 observations 2022 Nov. 16-2023 Mar. 19, mean residual 0".3.

* Finding Charts

* Magnitudes Graph

        m1 = 14.5 + 5 log d + 10.0 log r

---------------------------------------------------------------------

The orbital elements are published on M.P.E.C. 2023-F81.
The charts are made with StellaNavigator Ver.10 (AstroArts).
The magnitudes graphs are made with Comet for Windows.

---------------------------------------------------------------------

Copyright(C) Seiichi Yoshida (comet@aerith.net). All rights reserved.